Погода в Уральске

Погода в Уральске : погода сейчас, прогноз погоды и архив. Всё, что Вы хотите узнать о погоде в Уральске!

Хотите узнать прогноз погоды в Уральске? Тогда Вам сюда: Погода в Уральске

Поиск расширенной информации на нашем сайте:

Другие новости

Новости СМИ2

Главная страница сайта

Новости сайта

03.07.2017

Напоминаем, что на нашем специализированном сайте Метеоцентр.Азия вы можете получить высокодетализированные автоматические прогнозы погоды по пунктам России, СНГ и мира в авиационном формате (включающие направление и скорость ветра, видимость, явления погоды, количество и форму облачности, нижнюю и верхнюю границу облачности).


Погода в Уральске - сегодня

Время (UTC), дата Ветер
(°,м/с) 
Видим.   Явления Облачность Т
(°С)
Тd
(°С)
f(%) Тe
(°С)
Pmin
(гПа)
dP
(гПа)
Po
(мм)
O2
(г/м3)
Тmin Tmax R s Состояние
почвы
15 15.10.17 200 (Ю) н/о  {ливн. осадки}  10/10 600 м 
[Sc]
+9.7 +7.4 86 +9  1005.9  -1.4  751  291    +12.7  0.9     
18 15.10.17 170 (Ю) н/о  {ливн. осадки}  5/0 верхняя 
[Ci fib]
+8.2 +6.5 89 +8  1003.7  -2.2  749  292    +12.7  0.9     
21 15.10.17 150 (ЮВ) н/о    10/10 600 м 
[Sc]
+7.7 +7.1 96 +8  1001.4  -2.3  748  292           
00 16.10.17 160 (Ю) н/о    10/10 600 м 
[Sc]
+6.5 +4.9 89 +6  999.1  -2.3  746  293           
03 16.10.17 150 (ЮВ) н/о  слаб. дождь  10/10 600 м 
[Ns]
+8 +7.6 97 +8  998.3  -0.8  745  290         
06 16.10.17 210 (ЮЗ) 10 км  слаб. дождь  10/10 600 м 
[Ns]
+7.2 +6.1 93 +7  998.8  0.5  746  292  +6.5       
09 16.10.17 200 (Ю) 10 км  {дождь}  10/10 600 м 
[Ns]
+7.9 +4.7 80 +8  999.2  0.4  746  291           
12 16.10.17 180 (Ю) 10 км  {дождь}  10/10 600 м 
[Sc]
+8.2 +5.1 81 +8  999.8  0.6  747  291           
18 16.10.17 350 (С) н/о  слаб. ливневой дождь  9/9 600 м кучево-дожд. 
[Cb cap]
+7 +5.9 93 +7  1000.7  0.2  747  293    +9.8     
21 16.10.17 340 (С) н/о  в посл. час ливневой дождь  9/9 600 м кучево-дожд. 
[Cb cap]
+7 +6.1 94 +7  1000.4  -0.3  747  292           
00 17.10.17 310 (СЗ) н/о  дымка{ливн. осадки}  8/8 600 м кучево-дожд. 
[Cb cap]
+6.4 +5.5 94 +5  1000.5  0.1  747  293           
03 17.10.17 300 (СЗ) 4000 м  дымка  10/10 600 м 
[Sc]
+6.7 +5.8 94 +7  1000.6  0.1  747  293      0.7     
06 17.10.17 150 (ЮВ) 4000 м  дымка  10/10 600 м 
[Sc]
+8 +6.5 90 +8  1002.4  1.8  749  292  +6.2    0.7     
09 17.10.17 170 (Ю) 10 км    10/10 600 м 
[Sc]
+9.2 +5.9 80 +9  1003.8  1.4  750  291           
12 17.10.17 тихо ()   10 км    10/10 600 м 
[Sc]
+9.6 +6.4 80 +10  1005.5  1.7  751  291           
15 17.10.17 тихо ()   н/о    10/10 600 м 
[Sc]
+8.8 +6.9 88 +9  1006.8  1.3  752  292    +10.2       
18 17.10.17 300 (СЗ) н/о    8/8 600 м 
[Sc]
+6.7 +5.8 94 +8  1007.9  753  295    +10.2       
21 17.10.17 350 (С) н/о    10/10 600 м 
[Sc]
+7.8 +6.9 94 +7  1008.4  0.6  753  294           
00 18.10.17 350 (С) н/о    10/10 600 м 
[Sc]
+7.9 +5.4 84 +8  1009.9  1.5  754  294           
03 18.10.17 280 (З) 10 км    8/8 600 м 
[Sc]
+4.6 +3.6 93 +5  1012.4  2.4  756  299           
06 18.10.17 320 (СЗ) 10 км    6/4 600 м средняя 
[Sc|Ac lent]
+7.5 +4 78 +6  1014.3  1.9  757  296  +4.4         
09 18.10.17 300 (СЗ) 10 км    4/0 верхняя 
[Ci sp]
+10.9 +2.5 56 +11  1014.6  0.4  758  293           
12 18.10.17 280 (З) 10 км    9/0 средняя 
[Ac cuf]
+11 +3.5 60 +10  1013.8  -0.8  757  293           
15 18.10.17 260 (З) н/о    10/10 600 м 
[Sc]
+9.7 +4 68 +9  1013.7  -0.1  757  294    +12       
18 18.10.17 220 (ЮЗ) н/о  {ливн. осадки}  8/8 600 м кучево-дожд. 
[Cb cap]
+8.8 +5.5 80 +8  1011.7  -2  755  294    +12       
Время (UTC), дата Ветер
(°,м/с) 
Видим.   Явления Облачность Т
(°С)
Тd
(°С)
f(%) Тe
(°С)
Pmin
(гПа)
dP
(гПа)
Po
(мм)
O2
(г/м3)
Тmin Tmax R s Состояние
почвы

Для получения пояснительной информации подведите курсор к названию столбца.

ПОГОДА в Уральске - архив

Всё, что Вы хотите узнать о погоде в Уральске - удобно и подробно!

Выберите нужную дату (начиная с 1 января 2015* года) и нажмите кнопку "Найти".
Будут отображены архивные сводки погоды по пункту Уральск, начиная с указанной даты.


Отображать данные в формате CSV (для использования в таблицах Excel)


Внимание! Наш архив погоды предназначен исключительно для личного некоммерческого использования в познавательных целях. Если Вам необходимы официальные справки о состоянии погоды (для производственных, юридических, коммерческих и т.п. целей), обращайтесь в органы Росгидромета.

*Примечание: данная дата относится к архиву по метеостанциям СССР (Россия, СНГ, Балтия).
Архив по метеостанциям Зарубежной Европы и Азии (кроме Китая) хранится 10 дней, по другим регионам земного шара (Китай, Африка, Америка, Австралия, Океания) - 1 день.

Уральск - район местоположения метеостанции


Название, широта, долгота, высота метеостанции:
Уральск (город) 51.2°ш. 51.3°д. 37 м над ур. моря [Казахстан]

Дополнительная информация

В oтличие oт бoльшинства пoгoдных сайтoв мы публикуем пoдрoбную метеoинфoрмацию в детальнoм прoфессиoнальнoм фoрмате.

Характеристики температуры и влажнoсти вoздуха измеряются на высoте 2 м в тени вдали oт зданий и деревьев.
Скoрoсть ветра измеряется на высoте 10 м (на урoвне рoста челoвека скoрoсть ветра ниже в 1.5-2 раза). Если метеoстанция нахoдится в гoрoде или в лесу, тo скoрoсть ветра занижена на 2-4 м/с пo сравнению с oткрытым местoм. Скoрoсть ветра над акватoриями крупных рек и oзёр, а также на вершинах хoлмoв на 2-5 м/с выше, чем в oбычных услoвиях.
Атмoсфернoе давление в разных тoчках местнoсти мoжет значительнo oтличаться oт давления на метеoстанции, в зависимoсти oт услoвий рельефа (при пoдъёме на 10 м давление пoнижается примернo на 1 мм рт.ст.).